Flag for Argentina Weather past 2 weeks in Buenos Aires, Argentina

Now
68 °F

Clear.


Feels Like: 68 °F
Forecast: 65 / 78 °F
Wind: 8 mph from Northwest

Location: Buenos Aires Airport

Current Time: Apr 26, 2015 at 2:28:06 AM

Latest Report: Apr 26, 2015 at 2:00 AM


Visibility: 10 mi

Pressure: 30.04 "Hg

Humidity: 73%

Dew point: 59 °F

Location of Buenos AiresLocation

Historic Weather in Buenos Aires — Graph

°F

Buenos Aires temperature yesterday

Maximum temperature yesterday: 77 °F (at 3:00 PM)
Minimum temperature yesterday: 64 °F (at 1:00 AM)
Average temperature yesterday: 70 °F

Past Weeks' High & Low Weather Summary

 TemperatureHumidityPressure
High82 °F (Apr 13, 5:00 PM)100% (Apr 17, 2:00 AM)30.21 "Hg (Apr 17, 2:00 AM)
Low55 °F (Apr 18, 7:00 AM)27% (Apr 18, 2:00 PM)29.74 "Hg (Apr 19, 4:00 AM)
Average68 °F68%30.01 "Hg
* Reported Apr 11 1:00 AM — Apr 26 1:00 AM, Buenos Aires, Weather by CustomWeather, © 2015

Note: Actual official high and low records may vary slightly from our data, if they occured in-between our weather recording intervals... More about our weather records

Advertising

Buenos Aires weather history for previous 24 hours

 ConditionsComfort  
Time TempWeatherWind HumidityBarometerVisibility
1:00 AM
Sun, Apr 26
68 °FClear.7 mph78%30.04 "Hg10 mi
12:00 AM70 °FClear.7 mph78%30.04 "Hg10 mi
11:00 PM
Sat, Apr 25
70 °FClear.3 mph78%30.04 "Hg10 mi
10:00 PM70 °FClear.3 mph78%30.04 "Hg10 mi
9:00 PM70 °FClear.2 mph83%30.04 "Hg10 mi
8:00 PM72 °FClear.7 mph73%30.04 "Hg10 mi
7:00 PM72 °FClear.6 mph78%30.04 "Hg10 mi
6:00 PM75 °FClear.7 mph61%30.04 "Hg10 mi
5:00 PM75 °FSunny.9 mph65%30.04 "Hg10 mi
4:00 PM75 °FSunny.7 mph69%30.04 "Hg10 mi
3:00 PM77 °FSunny.8 mph57%30.07 "Hg10 mi
2:00 PM75 °FSunny.7 mph61%30.09 "Hg10 mi
12:00 PM72 °FSunny.8 mph57%30.12 "Hg10 mi
11:00 AM72 °FSunny.8 mph50%30.15 "Hg10 mi
10:00 AM72 °FSunny.8 mph47%30.15 "Hg10 mi
9:00 AM68 °FSunny.8 mph53%30.15 "Hg10 mi
8:00 AM66 °FSunny.12 mph56%30.15 "Hg10 mi
7:00 AM66 °FSunny.9 mph56%30.12 "Hg10 mi
6:00 AM66 °FClear.7 mph52%30.12 "Hg10 mi
5:00 AM64 °FClear.7 mph68%30.09 "Hg10 mi
4:00 AM64 °FClear.6 mph64%30.09 "Hg10 mi
3:00 AM64 °FClear.7 mph73%30.12 "Hg10 mi
2:00 AM64 °FClear.6 mph78%30.12 "Hg10 mi
Weather by CustomWeather, © 2015

See weather overviewHow to use our weather pages